Overview Statistics Trail Chart Weather Telemetry Raw packets
 

This is the latest recevied weather packets stored in our database for station/object KB1WCR. If no packets are shown the sender has not sent any weather packets the latest 10 day(s).

<< 107 108 109 110 111 112 113 >>
Time Temp. Humidity Pressure Rain* Wind** Luminosity Snow
1787620163 18.89° C 93% 1013.6 hPa 0 mm - 0 W/m² -
1787619857 18.89° C 92% 1013.6 hPa 0 mm - 0 W/m² -
1787619557 18.89° C 92% 1013.6 hPa 0 mm - 0 W/m² -
1787619252 18.89° C 91% 1013.4 hPa 0 mm - 0 W/m² -
1787618947 18.89° C 93% 1013.6 hPa 0 mm - 0 W/m² -
1787618643 18.89° C 91% 1013.8 hPa 0 mm - 0 W/m² -
1787618340 18.89° C 91% 1013.6 hPa 0 mm - 0 W/m² -
1787618035 18.89° C 90% 1013.5 hPa 0 mm - 0 W/m² -
1787617731 18.89° C 95% 1013.7 hPa 0 mm - 0 W/m² -
1787617424 18.89° C 95% 1013.5 hPa 0 mm - 0 W/m² -
1787617124 18.89° C 94% 1013.5 hPa 0 mm - 0 W/m² -
1787616819 18.89° C 94% 1013.4 hPa 0 mm - 0 W/m² -
1787616519 18.89° C 93% 1013.1 hPa 0 mm - 0 W/m² -
1787616218 19.44° C 93% 1013.3 hPa 0 mm - 0 W/m² -
1787615916 19.44° C 92% 1013.4 hPa 0 mm - 0 W/m² -
1787615611 19.44° C 92% 1013.2 hPa 0 mm - 0 W/m² -
1787615307 20° C 91% 1013.1 hPa 0 mm - 0 W/m² -
1787615003 20° C 91% 1013 hPa 0 mm - 1 W/m² -
1787614699 20.56° C 89% 1013 hPa 0 mm - 1 W/m² -
1787614395 21.11° C 89% 1013 hPa 0 mm - 2 W/m² -
1787614093 21.11° C 87% 1013 hPa 0 mm - 4 W/m² -
1787613789 21.67° C 85% 1013.1 hPa 0 mm - 7 W/m² -
1787613489 22.22° C 84% 1012.9 hPa 0 mm - 9 W/m² -
1787613184 22.22° C 82% 1012.9 hPa 0 mm - 10 W/m² -
1787612881 22.22° C 83% 1012.8 hPa 0 mm - 12 W/m² -

* Rain latest hour (hover to see other rain measurements)
** Current wind speed in m/s (hover to see current wind gust speed)